{"data":{"norad_id":54852,"intl_designator":"2022-177AJ","name":"STARLINK-5418","alt_names":[],"object_type":"PAYLOAD","status":"ACTIVE","operator":null,"country":"US","launch_date":"2022-12-28","launch_site_code":"AFETR","launch_vehicle":null,"mission":null,"orbit_class":"UNKNOWN","rcs_meters":null,"size_class":null,"mass_kg":null,"dimensions":null,"purposes":["comms"],"wikipedia_slug":null,"has_3d_model":false,"image_url":null,"decayed_at":null,"tle_current":{"epoch":"2026-05-24T18:59:34.520928Z","epoch_age_seconds":88956,"freshness":"FRESH","line1":"1 54852U 22177AJ  26144.79137177  .00002493  00000+0  10008-3 0  9991","line2":"2 54852  43.0067  51.4360 0001262 262.7926  97.2782 15.27583012188736","mean_motion":15.27583012,"eccentricity":0.0001262,"inclination_deg":43.0067,"raan_deg":51.436,"arg_perigee_deg":262.7926,"mean_anomaly_deg":97.2782,"bstar":0.00010008,"rev_number":18873,"period_min":94.266562843918,"perigee_km":482.17419649579,"apogee_km":483.90595759003,"semimajor_km":6861.1770770429,"source":"CELESTRAK","updated_at":"2026-05-25T13:38:17.725937Z"}}}